COSMOS 2251 DEB, 33797

Orbit data source: Space-Track

COSMOS 2251 DEB, 33797 is space debris in LEO originally from a launch on Wed, 16 Jun 1993 UTC launched from the Plesetsk Missile And Space Complex (PKMTR). The debris from Iridium 33, an American commercial communications satellite, has been tracked extensively since its accidental collision with the defunct Russian satellite Cosmos 2251 in 2009. This event, occurring at high speed in low Earth orbit (LEO), generated thousands of pieces of space debris, significantly increasing the risk of further collisions. The Iridium 33 debris cloud has impacted space traffic management and orbital debris mitigation strategies, making it a subject of ongoing study in space situational awareness.

Loading next visibility...
Identifier
33797, 1993-036AN
Orbit
LEO
Country
Flag of CISCIS
Related business
Manufacturer
Unknown
Mission
Spacecraft
Bus & Motor
Unknown
Mass
Unknown
Launch date (UTC)
1993-06-16 (33 years ago)
Launch vehicle
Unknown
Launch site
Plesetsk Missile And Space Complex (PKMTR)
Object type
Payload
Rocket body
Debris
Shape & HBR
Unknown shape, 0.3 m
Radar Cross Section
Medium (>0.1 m² and <1 m²)

Expand to show TLE details & history
Last TLE update: 11 hours ago

TLE from 11 hours ago
0 COSMOS 2251 DEB
1 33797U 93036AN  26035.74491647  .00002865  00000-0  61154-3 0  9999
2 33797  74.0471 292.3003 0061594   4.8322  53.3019 14.58166725897726
Epoch: 2026-02-04T17:52Z
TLE epoch observation values (Epoch: 2026-02-04T17:52:40.783Z)
Latitude
55.35278°
Longitude
-86.4832°
Altitude
682.057 km
Speed
7.535 km/s
True Right ascension
21h 06m 22s
True Declination
55° 11' 24"
Sunlit
Object was in daylight at epoch
Visualization orbit readout
Latitude
Unknown
Longitude
Unknown
Altitude
Unknown
Speed
Unknown
Apparent Right ascension
Unknown
Apparent Declination
Unknown
Sunlit
N/A
Visualization observer readout
Local Sidereal Time
07:12:15
Azimuth
Unknown
Elevation
Unknown
Doppler factor
Unknown
Orbital elements
Apogee altitude
740.275 km
Perigee altitude
653.121 km
Semi-major axis
7,074.835 km
Eccentricity
0.00616
Inclination
74.0471°
RAAN
292.3003°
Arg. of periapsis
4.8322°
True anomaly
53.87043°
Mean anomaly
53.3019°
Eccentric anomaly
53.5859°
Mean motion
3.64728 °/min
Orbital period
98.7 mins
BSTAR
0.00061154
Loading maneuver chart data...
Computing Atmospheric mass density...

Documentation

Showing up to 5 results
|